Temp
90 86 74 75 75 75 75 74 74 74 75 76 76 76 76 76 76 76 77 77 77 78 78 78 78 77 77 77 76 75 75 74 74 75 75 76 76 77 77 76 75 87 76
89 86 73 74 74 74 75 74 74 75 75 76 76 75 75 76 76 76 77 77 77 78 78 78 77 77 76 76 75 75 75 74 74 74 75 76 76 76 77 76 75 81 76
87 85 82 73 74 75 75 75 75 76 76 76 76 75 75 76 76 76 76 76 77 78 78 78 77 77 76 75 74 74 74 74 73 74 74 90 88 76 76 76 75 75 75
85 86 85 72 74 75 75 75 76 76 76 76 76 77 76 76 75 75 75 75 76 77 78 78 77 76 75 74 74 73 73 73 73 73 88 90 89 75 77 76 75 75 75
83 87 82 73 73 74 74 74 74 74 74 75 75 75 75 75 75 75 74 74 75 76 77 77 76 75 74 73 73 73 72 72 72 77 90 88 89 79 76 76 76 75 74
81 82 74 71 72 73 73 73 73 74 73 74 74 74 75 75 74 74 73 74 74 75 75 75 74 73 72 72 72 72 72 72 71 87 88 85 86 74 76 76 74 74 74
77 77 76 70 71 73 73 72 72 72 72 72 73 73 74 73 73 73 72 73 73 72 72 72 72 71 71 71 71 71 70 71 83 88 88 87 85 74 76 75 75 74 74
75 74 74 71 71 71 72 71 70 70 71 71 71 71 72 72 72 71 71 71 71 70 70 70 69 69 69 68 68 69 69 70 82 86 85 89 72 73 75 75 75 74 73
75 72 73 76 74 69 69 69 69 69 69 69 69 69 69 69 69 70 70 70 69 69 69 68 67 67 67 67 66 66 68 69 85 87 87 82 71 73 75 75 75 74 73
71 74 78 79 77 76 74 67 67 67 67 67 67 67 67 67 68 69 68 68 67 67 67 66 65 65 65 65 65 65 67 71 84 86 88 76 70 74 75 75 74 74 73
74 77 78 78 77 75 75 71 68 66 66 65 67 66 69 79 78 75 65 66 65 65 65 64 64 64 66 65 65 65 67 85 84 85 85 65 69 72 74 73 73 74 73
74 75 77 77 76 76 78 74 74 74 78 77 76 76 78 76 77 74 67 64 63 64 64 64 65 67 72 82 82 73 83 79 84 82 77 64 68 72 73 73 72 73 73
76 76 77 76 75 75 74 76 76 76 75 75 74 75 74 75 75 78 77 78 76 69 79 77 78 78 73 76 77 76 78 80 82 81 68 65 69 72 72 72 72 72 71
77 76 76 76 74 74 76 77 76 76 75 75 74 72 72 75 73 74 77 76 75 76 74 76 76 72 72 71 72 72 73 76 79 80 67 63 65 69 69 69 70 70 70
77 76 76 76 73 74 74 76 76 74 75 73 73 71 74 74 70 73 72 74 74 75 75 73 73 73 71 70 71 71 71 72 73 79 70 60 61 63 65 67 68 68 69
78 76 75 74 74 73 75 73 73 73 72 74 73 70 70 72 70 71 71 72 72 73 72 71 69 72 72 72 70 70 71 72 72 73 76 67 59 60 61 63 64 65 66
78 76 74 73 73 72 73 73 74 73 73 72 71 68 68 70 68 69 70 70 71 71 70 72 72 72 73 73 69 70 71 70 71 70 73 73 70 59 58 59 60 62 63
79 75 74 74 72 72 73 73 74 72 72 72 71 69 67 67 68 68 69 68 69 70 71 71 70 73 72 73 70 71 70 70 69 69 69 69 70 72 65 59 58 59 60
79 75 72 72 71 71 71 72 71 69 72 71 70 69 65 65 66 68 67 66 67 69 68 69 68 68 70 71 70 69 69 69 68 69 67 67 65 67 69 62 60 57 58
77 74 72 71 70 70 70 70 70 70 70 70 69 68 64 64 64 66 65 64 68 68 67 67 65 67 67 70 70 68 67 68 68 67 66 68 66 65 65 64 66 65 58
75 72 71 69 69 69 69 68 68 67 67 67 67 64 64 63 63 64 65 64 65 64 62 63 67 63 64 67 68 66 66 66 66 67 67 65 64 65 63 63 63 65 66
73 71 70 71 69 70 71 72 71 69 68 67 65 63 63 62 62 63 62 62 62 62 60 60 61 66 63 62 65 66 63 63 67 67 67 64 60 64 63 61 61 61 62
72 70 71 70 69 70 71 71 70 68 66 63 61 61 61 61 61 61 60 61 60 62 60 59 59 59 62 60 60 61 62 63 62 65 63 61 59 61 60 61 60 61 60
72 72 72 69 69 70 70 69 65 64 62 64 62 62 60 60 59 59 59 59 59 60 58 58 58 58 60 57 60 59 58 56 56 58 61 59 58 57 56 58 59 59 59
72 71 70 68 67 69 67 67 65 65 66 64 62 58 58 58 57 58 57 57 57 57 55 55 54 53 55 55 54 53 52 54 52 51 51 52 55 56 56 56 55 57 57
71 69 69 68 66 66 65 66 65 64 62 60 58 56 57 57 56 55 55 55 55 54 52 51 49 49 51 52 52 51 50 50 48 49 47 48 48 53 55 56 56 56 56
MSLP
1009.66 1011.12 1012.34 1012.60 1012.94 1013.30 1013.59 1013.95 1014.14 1014.26 1014.39 1014.57 1014.60 1014.57 1014.48 1014.60 1014.70 1014.76 1014.90 1014.85 1014.94 1014.87 1014.83 1014.96 1015.04 1015.05 1015.12 1015.18 1015.10 1015.27 1015.22 1015.21 1015.25 1015.07 1014.99 1014.85 1014.85 1014.83 1014.88 1014.71 1014.60 1013.63 1014.49
1009.93 1011.17 1012.36 1012.75 1013.10 1013.45 1013.69 1013.91 1014.14 1014.39 1014.55 1014.72 1014.84 1014.81 1014.73 1014.75 1014.88 1014.92 1014.93 1015.08 1014.97 1015.05 1015.04 1015.16 1015.20 1015.21 1015.28 1015.29 1015.30 1015.34 1015.21 1015.28 1015.27 1015.03 1014.90 1014.65 1014.62 1014.85 1014.79 1014.74 1014.75 1014.45 1014.64
1010.35 1011.27 1012.18 1012.82 1013.13 1013.49 1013.79 1013.99 1014.24 1014.43 1014.59 1014.76 1014.84 1014.96 1014.99 1015.05 1015.02 1015.04 1015.03 1015.16 1015.09 1015.06 1015.04 1015.11 1015.22 1015.28 1015.39 1015.44 1015.44 1015.41 1015.33 1015.36 1015.22 1015.02 1014.67 1013.62 1013.78 1014.74 1014.78 1014.79 1014.85 1014.85 1014.82
1010.52 1011.10 1011.91 1012.90 1013.20 1013.48 1013.78 1014.00 1014.18 1014.26 1014.42 1014.62 1014.79 1014.93 1014.99 1015.07 1015.18 1015.22 1015.24 1015.21 1015.26 1015.13 1015.11 1015.23 1015.29 1015.37 1015.47 1015.50 1015.49 1015.48 1015.42 1015.31 1015.25 1014.95 1013.82 1013.76 1013.76 1014.63 1014.75 1014.93 1015.00 1014.99 1014.94
1010.90 1010.98 1012.06 1012.79 1013.13 1013.45 1013.74 1014.01 1014.23 1014.27 1014.48 1014.69 1014.88 1015.04 1015.15 1015.20 1015.27 1015.36 1015.48 1015.48 1015.37 1015.41 1015.37 1015.34 1015.50 1015.54 1015.57 1015.60 1015.61 1015.57 1015.48 1015.37 1015.27 1014.73 1013.70 1014.03 1013.67 1014.55 1014.80 1014.91 1014.87 1014.92 1014.92
1011.30 1011.75 1012.62 1012.98 1013.30 1013.56 1013.82 1014.13 1014.48 1014.65 1014.83 1015.05 1015.21 1015.33 1015.34 1015.40 1015.43 1015.64 1015.58 1015.58 1015.51 1015.51 1015.52 1015.54 1015.64 1015.70 1015.71 1015.77 1015.74 1015.73 1015.63 1015.49 1015.16 1014.08 1014.01 1014.23 1014.09 1014.94 1014.91 1014.92 1015.00 1015.03 1015.03
1011.82 1012.23 1012.86 1013.41 1013.66 1013.88 1014.16 1014.47 1014.77 1014.91 1014.98 1015.20 1015.45 1015.54 1015.65 1015.75 1015.79 1015.89 1015.86 1015.88 1015.81 1015.79 1015.88 1015.88 1015.82 1015.84 1015.92 1015.90 1015.89 1015.83 1015.74 1015.56 1014.72 1014.01 1013.94 1014.09 1014.20 1015.09 1014.96 1014.94 1015.01 1015.05 1015.04
1012.17 1012.57 1013.15 1013.71 1013.94 1014.16 1014.47 1014.70 1014.94 1015.03 1015.21 1015.45 1015.59 1015.74 1016.04 1016.21 1016.25 1016.18 1016.14 1016.39 1016.30 1016.15 1016.16 1016.12 1016.15 1016.09 1016.11 1016.13 1016.07 1015.93 1015.75 1015.49 1014.50 1014.10 1014.14 1013.86 1015.15 1015.24 1015.09 1014.95 1014.90 1014.97 1015.10
1012.43 1012.98 1013.24 1013.45 1014.09 1014.43 1014.72 1014.94 1015.09 1015.20 1015.53 1015.86 1016.06 1016.22 1016.19 1016.31 1016.57 1016.69 1016.66 1016.62 1016.62 1016.57 1016.55 1016.45 1016.44 1016.36 1016.40 1016.42 1016.25 1016.09 1015.78 1015.41 1014.41 1014.26 1014.08 1014.58 1015.44 1015.17 1014.96 1014.89 1014.86 1014.93 1015.07
1012.79 1012.81 1012.70 1013.17 1013.70 1014.27 1014.77 1015.17 1015.31 1015.53 1015.87 1016.16 1016.37 1016.55 1016.71 1016.57 1016.59 1016.83 1016.94 1017.00 1016.96 1016.91 1017.02 1016.85 1016.75 1016.72 1016.59 1016.48 1016.46 1016.32 1015.89 1015.29 1014.65 1014.30 1013.81 1015.70 1015.88 1015.14 1014.85 1014.77 1014.67 1014.74 1014.91
1012.52 1012.63 1012.84 1013.15 1013.59 1014.13 1014.62 1015.35 1015.51 1015.84 1016.12 1016.34 1016.67 1016.78 1016.54 1015.94 1016.09 1016.59 1017.41 1017.42 1017.33 1017.15 1017.23 1017.12 1016.97 1016.83 1016.60 1016.35 1016.30 1016.15 1015.76 1014.75 1014.70 1014.64 1014.39 1016.41 1015.93 1015.39 1015.07 1014.92 1014.73 1014.54 1014.61
1012.14 1012.60 1013.00 1013.24 1013.56 1013.96 1014.29 1014.95 1015.20 1015.66 1015.52 1015.72 1015.76 1016.11 1016.05 1016.32 1016.35 1016.45 1017.27 1017.65 1017.51 1017.34 1017.24 1017.22 1016.85 1016.56 1016.00 1015.54 1015.45 1015.68 1015.19 1015.49 1014.87 1015.01 1015.75 1016.61 1015.89 1015.58 1015.28 1014.96 1014.83 1014.66 1014.57
1011.58 1012.26 1012.65 1013.16 1013.60 1013.82 1014.27 1014.55 1014.85 1015.28 1015.63 1015.91 1016.07 1016.03 1016.22 1016.44 1016.50 1016.52 1016.51 1016.45 1016.65 1017.08 1016.43 1016.46 1016.23 1016.06 1016.26 1015.97 1015.89 1016.00 1015.81 1015.45 1015.33 1015.22 1016.95 1016.68 1015.94 1015.56 1015.42 1015.29 1015.05 1014.94 1014.85
1010.77 1011.51 1012.18 1012.81 1013.51 1013.70 1014.01 1014.07 1014.55 1014.86 1015.38 1015.59 1016.12 1016.34 1016.40 1016.18 1016.59 1016.52 1016.56 1016.87 1016.73 1016.81 1016.86 1016.59 1016.45 1016.68 1016.56 1016.52 1016.34 1016.24 1016.24 1015.83 1015.60 1015.56 1017.15 1017.31 1016.78 1016.19 1016.05 1015.89 1015.52 1015.30 1015.11
1010.16 1010.98 1011.84 1012.46 1013.18 1013.67 1013.95 1014.13 1014.37 1014.98 1015.28 1015.81 1016.16 1016.52 1016.30 1016.50 1016.83 1016.99 1017.31 1017.11 1017.13 1017.03 1016.90 1016.91 1016.81 1016.79 1016.75 1016.89 1016.82 1016.45 1016.33 1016.26 1016.15 1015.85 1017.05 1017.78 1017.46 1017.25 1016.92 1016.57 1016.30 1016.04 1015.68
1009.70 1010.66 1011.56 1012.22 1012.81 1013.44 1013.74 1014.19 1014.65 1015.04 1015.78 1015.90 1016.26 1016.67 1016.77 1016.84 1017.23 1016.97 1017.22 1017.48 1017.47 1017.51 1017.51 1017.33 1017.28 1016.89 1016.89 1016.90 1017.03 1016.95 1016.66 1016.48 1016.58 1016.40 1016.28 1017.58 1017.96 1017.93 1017.66 1017.39 1017.18 1016.90 1016.47
1009.20 1010.35 1011.32 1011.99 1012.63 1013.23 1013.82 1014.29 1014.60 1015.13 1015.51 1015.89 1016.43 1016.95 1017.04 1016.93 1017.22 1017.48 1017.55 1017.58 1017.75 1017.99 1017.93 1017.56 1017.22 1017.12 1016.87 1016.85 1017.07 1016.95 1016.87 1016.98 1017.06 1017.24 1016.94 1016.99 1017.08 1017.94 1018.29 1018.20 1018.05 1017.50 1017.11
1008.62 1009.68 1010.80 1011.54 1012.42 1013.04 1013.53 1014.04 1014.34 1015.04 1015.35 1015.93 1016.55 1017.06 1017.35 1017.41 1017.30 1017.12 1017.25 1017.80 1018.07 1018.00 1017.83 1017.80 1017.57 1017.14 1017.05 1016.97 1016.98 1016.95 1016.98 1017.10 1017.34 1017.59 1017.86 1017.76 1017.68 1017.44 1017.67 1018.58 1018.44 1018.35 1017.90
1007.97 1009.33 1010.29 1011.14 1011.98 1012.71 1013.44 1013.77 1014.44 1015.16 1015.40 1015.99 1016.57 1016.98 1017.55 1017.57 1017.78 1017.70 1017.78 1018.09 1017.93 1017.92 1018.13 1018.09 1018.00 1017.80 1017.35 1017.08 1017.11 1017.22 1017.33 1017.36 1017.59 1017.86 1018.16 1018.13 1018.42 1018.17 1017.97 1018.26 1018.47 1018.64 1018.58
1007.67 1009.10 1010.06 1010.91 1011.60 1012.34 1013.10 1013.82 1014.42 1014.85 1015.38 1015.98 1016.47 1017.14 1017.85 1017.90 1018.07 1017.88 1018.27 1018.60 1018.20 1018.09 1018.09 1018.22 1018.16 1018.03 1017.73 1017.54 1017.30 1017.56 1017.77 1017.91 1017.88 1018.17 1018.27 1018.20 1018.52 1018.59 1018.51 1018.51 1018.07 1017.95 1018.70
1007.37 1008.65 1009.43 1010.17 1011.12 1011.92 1012.50 1013.01 1013.75 1014.28 1015.18 1015.77 1016.53 1017.49 1017.84 1018.19 1018.44 1018.44 1018.49 1018.66 1018.59 1018.54 1018.64 1018.63 1018.40 1018.24 1018.30 1018.03 1017.16 1017.37 1017.82 1018.17 1018.25 1018.25 1018.34 1018.64 1018.91 1018.73 1018.88 1018.89 1018.75 1018.27 1018.02
1006.77 1007.82 1008.82 1009.57 1010.66 1011.32 1011.82 1012.54 1013.31 1014.02 1014.95 1015.72 1016.66 1017.45 1017.94 1018.29 1018.45 1018.50 1018.58 1018.56 1018.62 1018.82 1018.94 1018.92 1018.82 1018.24 1018.39 1018.50 1017.64 1017.20 1016.79 1017.44 1017.75 1018.34 1018.56 1018.86 1019.24 1018.86 1018.96 1019.21 1019.18 1018.95 1018.73
1006.34 1007.27 1008.09 1008.87 1009.99 1010.63 1011.14 1012.15 1013.14 1014.22 1015.16 1016.10 1016.91 1017.51 1018.11 1018.53 1018.82 1019.01 1019.11 1019.02 1018.99 1018.83 1019.09 1019.20 1019.09 1018.82 1018.41 1019.00 1018.90 1018.01 1017.22 1016.80 1017.72 1018.10 1018.55 1019.18 1019.62 1019.36 1019.58 1019.31 1019.34 1019.11 1019.11
1005.81 1006.94 1007.68 1008.49 1009.36 1010.16 1010.99 1011.61 1012.26 1013.21 1014.19 1015.36 1016.43 1017.30 1018.01 1018.72 1019.05 1019.29 1019.46 1019.51 1019.45 1019.22 1019.35 1019.48 1019.56 1019.58 1019.05 1018.95 1019.15 1019.31 1019.45 1019.58 1018.79 1018.13 1018.65 1019.35 1019.94 1020.00 1020.11 1019.95 1019.80 1019.58 1019.46
1005.65 1006.34 1007.34 1008.28 1009.05 1009.53 1010.40 1011.18 1012.12 1012.56 1013.47 1015.04 1016.28 1017.32 1018.04 1018.88 1019.35 1019.56 1019.79 1019.93 1020.07 1020.08 1020.13 1020.32 1020.45 1020.17 1020.29 1019.73 1019.87 1020.05 1020.18 1020.20 1020.67 1020.22 1019.29 1019.46 1019.92 1020.17 1020.35 1020.31 1020.48 1020.24 1020.02
1005.66 1006.55 1007.18 1007.84 1008.80 1009.56 1010.45 1010.90 1011.58 1011.97 1013.14 1014.62 1016.17 1017.32 1018.23 1018.91 1019.46 1019.94 1020.27 1020.34 1020.70 1020.85 1021.12 1021.18 1021.57 1021.60 1021.08 1021.02 1021.02 1020.87 1020.73 1020.69 1021.14 1021.12 1020.83 1020.41 1020.29 1019.99 1020.24 1020.12 1020.04 1020.30 1020.58
Wind_Speed
13 18 14 13 12 12 12 11 10 9 9 9 9 9 10 9 8 8 8 8 7 8 9 8 8 7 7 6 6 5 4 4 4 5 4 3 3 4 3 5 8 6 7
15 17 13 14 14 13 12 12 11 11 11 11 9 9 9 9 9 8 8 7 8 7 7 6 6 6 6 6 5 4 5 5 4 4 5 5 4 3 2 3 5 8 5
15 16 16 14 15 15 14 14 13 13 13 13 11 10 10 10 9 8 8 6 7 7 7 7 7 7 5 5 5 4 4 4 4 4 6 3 4 5 4 1 2 3 3
14 15 16 13 14 15 14 13 13 13 11 10 10 10 10 10 9 8 7 6 4 5 7 7 7 6 6 5 4 3 3 4 4 7 8 2 1 9 4 1 2 3 3
13 14 16 12 12 12 13 12 10 10 10 8 7 7 8 9 9 7 5 4 4 3 4 6 5 5 5 5 4 3 3 3 4 10 5 3 5 10 6 1 5 4 3
13 13 14 13 13 13 12 12 11 11 9 10 9 6 7 7 8 6 6 5 5 5 4 4 4 3 3 3 3 2 2 4 8 3 3 3 5 9 7 3 2 3 2
13 12 13 11 11 12 14 13 12 11 10 9 9 8 8 9 9 8 9 9 10 10 9 7 7 7 6 5 4 3 3 5 9 4 4 4 6 8 7 7 2 3 3
12 12 12 11 11 12 12 12 11 12 12 12 12 13 12 11 12 13 13 11 11 12 12 12 12 12 11 10 9 6 5 5 8 4 4 3 13 10 8 7 3 3 4
12 11 11 13 13 12 11 11 11 12 13 13 13 13 14 14 13 13 13 12 12 12 12 12 11 11 10 10 9 7 4 4 5 3 4 9 14 9 7 7 7 4 5
11 12 12 13 13 11 11 12 13 13 13 14 14 13 13 14 13 10 12 11 11 11 11 11 11 8 8 9 9 8 4 6 3 3 3 8 12 12 9 6 5 5 6
12 12 12 12 12 11 11 11 13 14 14 14 11 9 8 6 8 9 11 10 10 11 10 10 9 7 1 6 6 4 10 3 4 4 6 12 11 10 11 11 11 5 7
14 13 12 12 12 12 9 10 9 9 7 7 8 7 5 5 6 8 9 9 9 7 7 6 5 1 5 3 1 5 3 5 2 3 9 12 9 10 10 11 12 15 6
15 12 14 12 12 11 10 8 6 6 6 6 7 6 7 5 5 3 3 4 3 1 2 1 2 4 5 4 4 4 3 2 3 3 12 13 12 12 13 14 15 16 15
18 17 16 15 13 11 8 8 8 7 6 5 6 7 5 4 4 3 3 3 3 3 3 3 4 4 4 5 4 4 4 4 3 3 11 16 17 16 16 16 15 16 18
19 18 17 16 14 11 10 8 7 7 6 7 6 6 5 5 5 4 4 4 4 3 4 4 4 5 4 5 5 5 5 5 5 3 7 15 19 19 18 18 18 18 18
19 19 18 17 15 13 10 10 8 7 8 6 6 6 7 5 4 5 5 4 4 4 4 4 4 3 4 3 5 5 6 6 7 5 4 9 16 19 19 19 19 19 18
18 18 18 17 15 14 13 11 8 8 7 7 7 7 8 7 7 5 5 4 4 4 3 3 3 3 3 3 5 5 5 6 7 7 6 6 8 17 19 18 19 19 19
19 21 19 15 17 16 13 11 9 9 8 8 7 7 8 7 7 7 6 4 4 3 3 4 4 3 3 2 3 4 5 6 7 7 8 8 8 8 11 16 17 19 19
20 20 20 19 19 17 15 11 10 11 8 7 7 7 8 8 6 5 5 5 4 3 4 4 4 5 3 3 4 5 4 5 6 6 7 8 9 9 7 9 10 17 18
19 20 19 17 19 18 13 12 10 9 9 8 7 7 8 7 7 6 6 5 3 3 4 4 4 4 4 3 3 4 4 4 5 5 6 7 8 9 9 9 7 7 14
20 21 22 21 21 16 13 13 12 11 10 8 8 10 9 7 7 6 5 5 4 5 5 4 2 5 5 3 3 4 4 4 3 4 5 6 9 8 8 8 7 6 6
22 23 23 22 21 17 13 12 11 11 10 9 9 9 9 8 7 6 6 6 5 5 5 5 5 2 5 5 3 3 5 6 4 3 3 5 9 6 8 8 9 9 8
21 23 22 22 22 19 17 13 11 10 10 9 9 9 8 8 7 6 6 6 6 5 5 5 5 5 3 5 8 5 3 1 2 4 4 6 8 6 8 6 8 9 9
19 19 21 22 22 19 19 16 19 13 13 10 9 8 9 8 8 7 7 6 5 5 6 5 5 5 3 4 3 5 6 5 3 2 3 4 7 7 9 6 7 8 8
16 18 19 20 21 21 19 17 15 15 11 11 10 13 11 9 8 8 7 7 6 5 6 6 6 6 4 4 5 4 4 4 5 3 4 4 4 4 6 4 6 7 8
12 14 18 21 21 20 20 19 20 18 16 13 13 10 8 7 7 7 7 7 6 6 7 7 6 6 6 5 5 5 4 3 3 3 3 7 6 3 4 5 5 6 8
Wind_Direction
158 133 146 147 143 145 147 152 150 148 144 142 136 132 124 122 115 109 132 132 132 131 127 127 124 114 108 108 99 93 78 60 35 22 11 7 13 359 351 25 327 24 18
137 143 139 135 137 143 145 145 144 146 147 146 141 131 128 125 128 123 122 146 145 139 137 141 136 123 107 95 92 74 58 43 25 12 335 230 148 22 351 32 0 29 8
142 134 143 135 139 143 146 145 147 148 146 144 139 144 153 146 136 130 123 118 130 137 134 155 133 118 107 94 76 63 55 41 12 338 282 284 50 43 349 25 12 1 352
144 146 143 135 136 138 142 143 144 139 136 139 150 159 153 142 142 138 134 131 126 135 138 136 124 116 113 105 95 71 51 39 355 301 239 337 15 69 15 209 330 331 318
147 145 128 132 127 121 119 118 115 112 115 120 117 111 111 120 128 133 127 119 110 92 114 119 125 120 108 99 92 72 47 32 309 265 341 360 328 65 11 219 218 216 323
145 143 126 125 127 127 124 123 136 143 137 148 154 141 134 128 115 114 109 100 90 87 80 90 101 91 80 80 86 55 29 341 289 335 336 106 302 33 5 321 302 320 306
143 135 136 120 125 136 138 141 140 137 131 126 116 119 122 106 99 91 85 87 87 81 72 65 64 61 52 47 48 33 6 320 296 313 310 329 42 1 350 351 253 273 284
143 136 136 133 135 138 129 122 116 108 105 103 103 98 101 97 92 89 86 82 80 77 74 73 71 71 68 64 56 44 42 326 238 310 322 309 27 344 330 338 281 248 261
139 140 153 145 129 106 109 112 110 106 101 99 99 103 101 91 86 86 84 83 77 71 69 68 65 66 63 56 53 43 50 355 312 337 301 34 3 340 336 339 342 250 245
156 162 155 149 148 141 136 109 105 103 104 107 109 107 102 104 106 102 111 78 78 71 62 59 55 54 65 58 39 13 323 234 1 310 94 35 352 5 5 9 331 273 243
171 163 157 155 149 142 136 119 111 108 112 119 120 124 174 126 123 99 73 83 79 78 66 58 51 38 327 120 73 360 284 20 329 354 50 6 358 7 10 16 9 306 232
172 167 164 160 151 151 139 145 134 145 146 146 147 149 137 122 84 96 102 93 85 84 87 71 60 267 275 335 37 218 3 349 309 324 60 357 5 12 20 28 20 29 351
174 173 168 164 161 159 146 150 152 148 147 139 141 148 126 133 136 120 127 132 99 64 33 118 74 47 40 11 23 12 10 336 19 47 43 15 35 41 40 36 35 34 26
181 175 171 169 167 164 157 165 153 149 147 144 128 135 134 131 114 97 73 76 77 47 25 24 55 41 45 54 55 57 33 18 35 91 71 40 38 41 42 36 36 34 31
187 178 176 169 169 163 170 152 147 138 144 127 139 124 120 112 111 97 69 66 46 52 52 39 42 34 36 44 30 43 69 72 74 86 89 59 54 46 39 39 37 34 34
189 182 175 174 169 165 167 157 144 137 135 135 126 112 111 113 113 109 104 78 67 41 46 51 35 30 45 42 64 51 57 58 59 62 100 98 71 52 44 42 38 33 32
193 181 178 173 167 170 163 153 148 140 140 132 121 124 120 122 110 101 94 85 63 57 39 49 53 57 67 94 77 81 85 72 67 53 43 30 111 86 56 40 35 36 34
194 185 177 171 169 170 164 161 149 150 140 136 133 126 118 117 123 129 117 90 55 55 34 38 12 52 64 73 89 87 88 89 79 73 53 40 29 14 80 41 43 35 33
193 183 180 173 173 171 163 158 150 144 143 135 136 128 125 118 113 109 102 104 107 92 59 23 46 2 37 74 106 106 93 86 78 71 62 56 39 33 16 59 38 54 36
189 186 180 174 172 170 162 156 153 150 143 143 135 122 132 118 123 122 109 101 100 88 77 62 41 63 38 31 97 109 87 83 83 66 59 48 38 37 30 21 17 66 54
188 187 185 177 173 170 169 168 163 158 151 141 131 134 131 124 118 118 112 112 92 80 64 45 49 46 47 6 185 146 152 127 72 56 58 46 18 35 37 27 21 15 31
190 190 187 183 176 179 175 172 168 155 152 143 140 137 130 130 129 130 132 122 115 111 83 59 30 90 76 34 342 284 184 163 184 84 48 49 20 24 24 27 21 21 17
196 195 189 184 180 183 174 162 155 147 138 150 148 143 135 131 124 119 117 113 120 110 90 70 58 31 73 69 36 345 241 40 311 122 103 54 12 16 8 16 18 16 15
205 197 191 186 182 181 176 169 168 165 165 164 159 139 137 135 130 123 118 115 108 109 106 93 71 47 31 61 104 59 49 14 349 217 132 48 6 12 16 358 1 1 6
207 196 190 189 186 179 177 178 175 170 162 154 148 148 143 138 132 123 119 115 110 99 91 85 79 73 57 68 58 45 49 96 34 317 295 345 330 346 344 349 346 348 3
201 198 192 187 190 182 185 181 187 172 157 156 154 152 150 141 134 118 114 103 98 100 92 83 74 63 68 70 76 63 58 38 40 0 320 328 327 356 13 342 352 356 347